Station WASD2 - 8594900 - WASHINGTON- DC

Sailing guide
Sailing guide
english français italiano spagnolo
english français italiano español
Sea - Seek
Station WASD2 - 8594900 - WASHINGTON- DC
Station WASD2 - 8594900 - WASHINGTON- DC

Weather report - Station WASD2 - 8594900 - WASHINGTON- DC

Time Wind speed knots Wind direction Pressure ----
July 28, 2014 9:48 am EDT 16 310 1004 Air Temperature:27
July 28, 2014 8:48 am EDT 10 260 1003 Air Temperature:26.6
July 28, 2014 7:48 am EDT 3 230 1003 Air Temperature:25.3
July 28, 2014 6:48 am EDT 4 260 1002 Air Temperature:23.9
July 28, 2014 5:48 am EDT 4 180 1002 Air Temperature:23.8
July 28, 2014 4:48 am EDT 2 250 1001 Air Temperature:24.1
July 28, 2014 3:48 am EDT 4 280 1002 Air Temperature:24.9
July 28, 2014 2:48 am EDT 3 310 1002 Air Temperature:25.1
July 28, 2014 1:48 am EDT 5 310 1002 Air Temperature:25.9
July 28, 2014 12:48 am EDT 3 250 1002 Air Temperature:26.5
July 27, 2014 11:48 pm EDT 4 250 1003 Air Temperature:26.9
July 27, 2014 10:48 pm EDT 6 180 1004 Air Temperature:26.4
July 27, 2014 9:48 pm EDT 8 160 1004 Air Temperature:26.8
July 27, 2014 8:48 pm EDT 7 190 1005 Air Temperature:27.2
July 27, 2014 8:42 pm EDT 7 190 1005 Air Temperature:27.3
July 27, 2014 7:48 pm EDT 9 200 1005 Air Temperature:27.4
July 27, 2014 6:48 pm EDT 10 210 1005 Air Temperature:27.9
July 27, 2014 5:48 pm EDT 9 210 1006 Air Temperature:27.7
July 27, 2014 4:48 pm EDT 6 210 1007 Air Temperature:28.5
July 27, 2014 3:48 pm EDT 13 170 1007 Air Temperature:27.7
July 27, 2014 2:48 pm EDT 8 190 1008 Air Temperature:28.1
July 27, 2014 1:48 pm EDT 8 220 1009 Air Temperature:27.8
July 27, 2014 12:48 pm EDT 7 210 1009 Air Temperature:26.3
July 27, 2014 11:48 am EDT 7 220 1009 Air Temperature:25.1
July 27, 2014 10:48 am EDT 6 180 1009 Air Temperature:23.9
July 27, 2014 9:48 am EDT 6 180 1010 Air Temperature:23.2
July 27, 2014 8:48 am EDT 4 250 1011 Air Temperature:23.2
July 27, 2014 8:42 am EDT 2 230 1011 Air Temperature:23.3
July 27, 2014 7:48 am EDT 3 290 1010 Air Temperature:23.5
July 27, 2014 6:48 am EDT 12 190 1008 Air Temperature:23.4